Simultaneous Nadir Overpasses (SNOs) Predictions

Prediction of SNOs between GOES-16 and FY3D Satellite Orbit:

Table of predicted SNOs for the next 14.0 days since TLE Epoch: 5/27/2023
Index Date Time (GOES-16) GOES-16 Lat,Lon FY3D Lat,Lon Distance(km) Time Diff (sec)
1 05/27/2023 07:12:03 -0.02, -75.20 0.35, -76.95 199.05 80
2 05/28/2023 06:56:18 -0.02, -75.20 -0.62, -72.48 309.80 80
3 05/29/2023 19:16:06 0.02, -75.21 -0.57, -77.89 305.89 80
4 05/30/2023 19:00:22 0.02, -75.22 0.40, -73.43 203.31 80
5 06/01/2023 07:20:01 -0.03, -75.23 0.80, -78.80 407.29 80
6 06/02/2023 07:04:18 -0.03, -75.24 -0.24, -74.35 101.93 80
7 06/04/2023 19:08:22 0.04, -75.26 0.04, -75.30 4.47 80
8 06/07/2023 07:09:36 -0.04, -75.29 0.18, -76.21 105.21 80
9 06/08/2023 06:53:53 -0.04, -75.30 -0.86, -71.76 404.46 80
10 06/09/2023 19:13:40 0.04, -75.32 -0.35, -77.16 209.79 80
